FW1418 Weather Reports


Display with metric or nautical units.
time (UTC)temp
F
wind
direction
speed
MPH
gust
MPH
rain 1hr
in
rain 24hr
in
rain mn
in
humidity
%
barometer
mb
20260905174521 74 98 3.0 8.0 0.00 0.00 0.00 75 1017.6
20260905173022 73 87 6.0 9.0 0.00 0.00 0.00 76 1017.6
20260905171520 73 104 3.0 9.0 0.00 0.00 0.00 78 1017.8
20260905170019 73 113 6.0 10.0 0.00 0.00 0.00 77 1017.8
20260905164527 74 134 2.0 7.0 0.00 0.00 0.00 78 1017.8
20260905163016 73 142 3.0 9.0 0.00 0.00 0.00 79 1017.7
20260905161515 72 134 3.0 9.0 0.00 0.00 0.00 79 1017.8
20260905160013 72 111 4.0 9.0 0.00 0.00 0.00 79 1017.9
20260905154511 72 109 2.0 9.0 0.00 0.00 0.00 80 1017.9
20260905153012 71 101 5.0 10.0 0.00 0.00 0.00 81 1017.9
20260905151507 71 99 4.0 9.0 0.00 0.00 0.00 81 1017.5
20260905150005 71 111 3.0 8.0 0.00 0.00 0.00 82 1017.6
20260905144503 71 101 4.0 8.0 0.00 0.00 0.00 83 1017.2
20260905143100 70 118 2.0 8.0 0.00 0.00 0.00 85 1017.3
20260905141600 71 90 4.0 9.0 0.00 0.00 0.00 83 1017.1
20260905140105 70 125 3.0 10.0 0.00 0.00 0.00 83 1016.9
20260905134554 69 108 6.0 11.0 0.00 0.00 0.00 82 1016.7
20260905133051 69 141 4.0 9.0 0.00 0.00 0.00 83 1016.8
20260905131604 69 135 4.0 11.0 0.00 0.00 0.00 84 1016.8
20260905130051 69 141 6.0 12.0 0.00 0.00 0.00 83 1016.9
20260905124549 68 111 5.0 11.0 0.00 0.00 0.00 85 1016.8
20260905123047 68 127 3.0 10.0 0.00 0.00 0.00 85 1016.6
20260905121550 68 134 6.0 11.0 0.00 0.00 0.00 86 1016.7
20260905120045 68 160 4.0 10.0 0.00 0.00 0.00 87 1016.4
20260905114543 68 111 5.0 10.0 0.00 0.00 0.00 87 1016.4
20260905113043 67 130 5.0 10.0 0.00 0.00 0.00 88 1016.2
20260905111602 67 116 6.0 12.0 0.00 0.00 0.00 89 1016.3
20260905110040 67 136 6.0 12.0 0.00 0.00 0.00 90 1016.2
20260905104538 67 136 4.0 12.0 0.00 0.00 0.00 90 1016.0
20260905103037 67 108 6.0 14.0 0.00 0.00 0.00 88 1016.0
20260905101535 68 99 4.0 12.0 0.00 0.00 0.00 89 1016.0
20260905100033 68 107 4.0 9.0 0.00 0.00 0.00 88 1015.9
20260905094531 68 122 7.0 12.0 0.00 0.00 0.00 88 1015.7
20260905093031 68 115 5.0 10.0 0.00 0.00 0.00 87 1015.6
20260905091530 68 115 4.0 9.0 0.00 0.00 0.00 86 1015.6
20260905090028 68 100 5.0 9.0 0.00 0.00 0.00 86 1015.6
20260905084530 68 106 4.0 8.0 0.00 0.00 0.00 86 1015.6
20260905083028 68 126 4.0 8.0 0.00 0.00 0.00 85 1015.6
20260905081527 68 131 3.0 7.0 0.00 0.00 0.00 85 1015.6
20260905080025 68 111 3.0 9.0 0.00 0.00 0.00 86 1015.6
20260905074524 68 130 4.0 9.0 0.00 0.00 0.00 87 1015.6
20260905073025 68 108 4.0 8.0 0.00 0.00 0.00 87 1015.7
20260905071536 68 100 3.0 10.0 0.00 0.00 0.00 89 1015.3
20260905070020 68 115 3.0 8.0 0.00 0.00 0.00 90 1015.4
20260905064519 68 134 4.0 9.0 0.00 0.00 0.00 90 1015.3
20260905063017 68 103 3.0 8.0 0.00 0.00 0.00 91 1015.2
20260905061520 68 117 5.0 10.0 0.00 0.00 0.00 92 1015.2
20260905060017 68 108 4.0 9.0 0.00 0.00 0.00 94 1015.3
20260905054535 68 94 4.0 9.0 0.00 0.00 0.00 94 1015.2
20260905053012 68 113 4.0 8.0 0.00 0.00 0.00 95 1015.2
20260905051511 69 123 3.0 7.0 0.00 0.00 0.00 94 1015.1
20260905050015 69 154 0.0 7.0 0.00 0.00 0.00 94 1015.2
20260905044509 69 144 2.0 5.0 0.00 0.00 0.00 95 1015.1
20260905043007 69 153 0.0 3.0 0.00 0.00 0.00 94 1015.1
20260905041507 69 155 1.0 5.0 0.00 0.00 0.00 94 1014.9
20260905040004 69 210 4.0 10.0 0.00 0.00 0.00 94 1014.9
20260905034504 69 128 1.0 7.0 0.00 0.00 0.00 94 1015.0
20260905033003 69 148 2.0 5.0 0.00 0.00 0.00 94 1015.1
20260905031506 70 133 4.0 8.0 0.00 0.00 0.00 95 1015.2
20260905030003 70 127 3.0 4.0 0.00 0.00 0.00 95 1015.2
20260905024502 70 129 1.0 2.0 0.00 0.00 0.00 96 1015.2
20260905023004 70 157 1.0 6.0 0.00 0.00 0.00 96 1015.2
20260905021501 70 126 2.0 6.0 0.00 0.00 0.00 96 1015.0
20260905020109 70 134 2.0 8.0 0.00 0.00 0.00 95 1015.1
20260905014613 70 130 4.0 8.0 0.00 0.00 0.00 96 1015.0
20260905013103 71 105 3.0 8.0 0.00 0.00 0.00 96 1015.2
20260905011610 71 115 4.0 8.0 0.00 0.00 0.00 97 1015.0
20260905010058 71 132 0.0 5.0 0.00 0.00 0.00 97 1015.0
20260905004558 71 113 2.0 4.0 0.00 0.00 0.00 98 1014.8
20260905003057 71 112 2.0 6.0 0.00 0.00 0.00 98 1014.8
20260905001557 71 132 1.0 7.0 0.00 0.00 0.00 98 1014.7
20260905000057 71 111 2.0 6.0 0.00 0.00 0.00 97 1014.7
20260904234558 71 134 3.0 7.0 0.00 0.00 0.00 97 1014.8
20260904233056 71 71 3.0 7.0 0.00 0.00 0.00 97 1014.8
20260904231556 71 113 2.0 6.0 0.00 0.00 0.00 98 1014.4
20260904230055 71 109 1.0 4.0 0.00 0.00 0.00 97 1014.3
20260904224605 72 113 2.0 4.0 0.00 0.00 0.00 96 1014.1
20260904223054 72 107 1.0 4.0 0.00 0.00 0.00 95 1014.0
20260904221559 72 107 1.0 4.0 0.00 0.00 0.00 96 1014.1
20260904220056 72 126 0.0 2.0 0.00 0.00 0.00 97 1013.9
20260904214552 72 126 0.0 0.0 0.00 0.00 0.00 97 1013.9
20260904213052 72 126 0.0 1.0 0.00 0.00 0.00 97 1014.0
20260904211554 72 126 0.0 2.0 0.00 0.00 0.00 97 1014.0
20260904210054 73 126 0.0 2.0 0.00 0.00 0.00 96 1014.1
20260904204550 73 126 0.0 1.0 0.00 0.00 0.00 96 1014.1
20260904203050 73 126 0.0 0.0 0.00 0.00 0.00 95 1014.0
20260904201604 73 126 0.0 0.0 0.00 0.00 0.00 95 1014.2
20260904200049 73 126 0.0 1.0 0.00 0.00 0.00 96 1014.2
20260904194602 73 126 0.0 1.0 0.00 0.00 0.00 95 1014.1
20260904193048 73 126 0.0 2.0 0.00 0.00 0.00 95 1014.1
20260904191554 73 138 2.0 4.0 0.00 0.00 0.00 95 1014.1
20260904190046 73 128 1.0 3.0 0.00 0.10 0.00 95 1013.9
20260904184545 73 128 2.0 6.0 0.00 0.10 0.00 94 1013.9
20260904183045 73 126 3.0 5.0 0.00 0.10 0.00 94 1014.0
20260904181545 74 100 4.0 7.0 0.00 0.10 0.00 94 1013.8
20260904180044 74 95 2.0 4.0 0.00 0.10 0.00 94 1013.8